* Astronomy

Members Login
Username 
 
Password 
    Remember Me  
Post Info TOPIC: Asteroid 2011 WF44


L

Posts: 131433
Date:
Asteroid 2011 WF44
Permalink  
 


Orbital elements:
2011 WF44                                                Earth MOID = 0.0032 AU
Epoch 2011 Aug. 27.0 TT = JDT 2455800.5                 MPC
M 344.02426              (2000.0)            P               Q
n   0.37096900     Peri.  119.34970     +0.99285514     +0.10613341
a   1.9182754      Node   234.60941     -0.11871192     +0.92484692
e   0.5902882      Incl.    3.83590     +0.01208892     +0.36523126
P   2.66           H   25.0           G   0.15           U   8

MPEC 2011 - W61



__________________
Page 1 of 1  sorted by
 
Quick Reply

Please log in to post quick replies.



Create your own FREE Forum
Report Abuse
Powered by ActiveBoard